Simultaneous Nadir Overpasses (SNOs) Predictions

Prediction of SNOs between METOP-A and NOAA-19 Satellite Orbit:

Table of predicted SNOs for the next 14.0 days since TLE Epoch: 8/31/2018
Index Date (METOP-A) Time (METOP-A) Lat,Lon (METOP-A) SZA (METOP-A ) Date (NOAA-19) Time (NOAA-19) Lat,Lon (NOAA-19) SZA (NOAA-19 ) Distance(km) Time Diff (sec)
1 09/05/2018 22:07:06 78.86,-142.22 72.41 09/05/2018 22:05:59 78.84,-142.19 72.38 2.05 67
2 09/05/2018 22:57:48 -78.85, 25.02 107.60 09/05/2018 22:56:58 -78.85, 24.97 107.60 1.56 50
3 09/05/2018 23:48:28 78.84,-167.69 72.41 09/05/2018 23:48:00 78.84,-167.67 72.41 0.45 28
4 09/06/2018 00:39:10 -78.82, -0.45 107.60 09/06/2018 00:38:59 -78.85, -0.51 107.58 3.37 11
5 09/06/2018 01:29:50 78.82, 166.83 72.41 09/06/2018 01:30:01 78.84, 166.84 72.43 2.39 11
6 09/06/2018 02:20:31 -78.84, -25.69 107.55 09/06/2018 02:20:59 -78.82, -25.75 107.58 3.02 28
7 09/06/2018 03:11:11 78.83, 141.59 72.45 09/06/2018 03:12:01 78.80, 141.60 72.43 3.42 50
8 09/06/2018 04:01:53 -78.82, -51.16 107.55 09/06/2018 04:03:00 -78.81, -51.23 107.55 1.58 67




NCC Satellite Simultaneous Nadir Overpasses (SNOs) Prediction Service
